Погода в Ухте

Поиск расширенной информации на нашем сайте:

Полезная информация:

Новости сайта



02.01.2020
Опубликован Долгосрочный прогноз погоды по городам России и ближнего зарубежья на январь 2020 года.
Карты: Прогноз на январь и февраль 2020 года, Сравнение прогнозируемой аномалии приземной температуры воздуха на январь 2020 года по разным моделям.




Погода в Ухте - сегодня

Время (UTC), дата Ветер
(°,м/с) 
Видим.   Явления Облачность Т
(°С)
Тd
(°С)
f(%) Тe
(°С)
Pmin
(гПа)
dP
(гПа)
Po
(мм)
O2
(г/м3)
Тmin Tmax R s Состояние
почвы
15 29.11.20 220 (ЮЗ) 10 км    ясно 
-18.1 -19.3 90 -21  1048.3  772  335    -15.3       
18 29.11.20 190 (Ю) 10 км    ясно 
-16.6 -18.5 85 -19  1047.2  -1  771  332           
21 29.11.20 160 (Ю) 10 км    ясно 
-18.6 -20.5 85 -19  1046.9  -0.5  771  335           
00 30.11.20 200 (Ю) 10 км    10/10 150 м 
[St]
-13.4 -14.7 90 -16  1045.7  -0.6  770  328           
03 30.11.20 200 (Ю) 10 км    10/10 210 м 
[St]
-9.9 -11.1 91 -12  1044.5  -1  769  323  -18.1      равномерный
сухой снег
100% 
06 30.11.20 210 (ЮЗ) 12000 м    10/10 240 м 
[St]
-8.2 -9.2 92 -10  1043.9  -0.4  769  320           
09 30.11.20 200 (Ю) 12000 м    10/10 240 м 
[St]
-7 -7.9 93 -8  1043.5  -0.3  769  319           
12 30.11.20 200 (Ю) 10 км    10/10 210 м 
[St]
-6 -6.8 94 -7  1042.8  -0.6  768  317           
15 30.11.20 200 (Ю) 10 км    10/3 300 м средняя 
[Sc|Ac trans]
-5.3 -5.6 98 -7  1041.6  -1.1  768  316    -5.3       
18 30.11.20 220 (ЮЗ) 10 км    10/10 300 м 
[Sc]
-4.5 -5.1 96 -6  1040.6  -1  767  315           
21 30.11.20 210 (ЮЗ) 10 км    10/10 360 м 
[Sc]
-4.5 -5.4 93 -8  1039.5  -0.8  766  315           
00 01.12.20 180 (Ю) 5{10}  10 км    4/0 средняя 
[Ac trans]
-6.3 -7.1 94 -10  1038  -1.9  765  316           
03 01.12.20 200 (Ю) 5{10}  10 км    10/10 240 м 
[Frnb]
-6.8 -7.7 93 -11  1037.2  -0.8  764  317  -6.8      равномерный
сухой снег
100% 
06 01.12.20 200 (Ю) 4{10}  12000 м    10/10 330 м 
[Sc]
-5 -6.7 88 -8  1036.2  -0.9  764  314           
09 01.12.20 200 (Ю) 5-10{10}  12000 м    8/4 300 м верхняя 
[Sc|Ci fib]
-4.6 -6.6 86 -8  1034.9  -1.1  763  313           
12 01.12.20 200 (Ю) 4{10}  10 км    6/0 верхняя 
[Ci fib]
-5.5 -7.7 84 -9  1034.1  -0.9  762  314           
15 01.12.20 200 (Ю) 10 км    4/0 верхняя 
[Ci fib]
-5.6 -8.2 82 -8  1033  -1.1  761  314    -4.6       
18 01.12.20 200 (Ю) 10 км    4/0 верхняя 
[Ci fib]
-5 -7.8 81 -8  1032.1  -0.9  761  313           
21 01.12.20 210 (ЮЗ) 5{10}  10 км    10/8 480 м средняя 
[Sc|Ac trans]
-4.9 -7.7 81 -9  1031.8  -0.3  760  313           
00 02.12.20 210 (ЮЗ) 5{10}  7000 м  слаб. ливневой снег  10/8 480 м кучево-дожд., средняя 
[Cb cap|Ac As]
-5.4 -7.2 87 -9  1031.8  760  313           
03 02.12.20 210 (ЮЗ) 10 км  {ливн. осадки}  10/10 400 м 
[Sc]
-5.5 -7.3 87 -9  1032.3  0.5  761  314  -5.6    0.2  равномерный
сухой снег
100% 
06 02.12.20 210 (ЮЗ) 12000 м  {ливн. осадки}  10/10 330 м 
[Sc]
-6 -7.9 86 -9  1032.4  761  314  -6         
09 02.12.20 220 (ЮЗ) 12000 м    10/10 360 м 
[Sc]
-6.1 -8.4 84 -9  1032.3  -0.1  761  314           
12 02.12.20 220 (ЮЗ) 10 км    10/10 400 м 
[Sc]
-6.2 -8.5 84 -10  1032.3  761  315           
15 02.12.20 220 (ЮЗ) 10 км    10/10 330 м 
[Sc]
-6.5 -8.1 88 -10  1032.3  761  315    -5.5       
Время (UTC), дата Ветер
(°,м/с) 
Видим.   Явления Облачность Т
(°С)
Тd
(°С)
f(%) Тe
(°С)
Pmin
(гПа)
dP
(гПа)
Po
(мм)
O2
(г/м3)
Тmin Tmax R s Состояние
почвы

Для получения пояснительной информации подведите курсор к названию столбца.

ПОГОДА в Ухте - архив

Всё, что Вы хотите узнать о погоде в Ухте - удобно и подробно!

Выберите нужную дату (начиная с 1 января 2019* года) и нажмите кнопку "Найти".
Будут отображены архивные сводки погоды по пункту Ухта, начиная с указанной даты.


Отображать данные в формате CSV (для использования в таблицах Excel)


Внимание! Наш архив погоды предназначен исключительно для личного некоммерческого использования в познавательных целях. Если Вам необходимы официальные справки о состоянии погоды (для производственных, юридических, коммерческих и т.п. целей), обращайтесь в органы Росгидромета.

*Примечание: данная дата относится к архиву по метеостанциям СССР (Россия, СНГ, Балтия).
Архив по метеостанциям Зарубежной Европы и Азии (кроме Китая) хранится 10 дней, по другим регионам земного шара (Китай, Африка, Америка, Австралия, Океания) - 1 день.

Ухта - район местоположения метеостанции


Название, широта, долгота, высота метеостанции:
Ухта 63.6°ш. 53.8°д. 137 м над ур. моря [Российская Федерация]

Дополнительная информация

В oтличие oт бoльшинства пoгoдных сайтoв мы публикуем пoдрoбную метеoинфoрмацию в детальнoм прoфессиoнальнoм фoрмате.

Характеристики температуры и влажнoсти вoздуха измеряются на высoте 2 м в тени вдали oт зданий и деревьев.
Скoрoсть ветра измеряется на высoте 10 м (на урoвне рoста челoвека скoрoсть ветра ниже в 1.5-2 раза). Если метеoстанция нахoдится в гoрoде или в лесу, тo скoрoсть ветра занижена на 2-4 м/с пo сравнению с oткрытым местoм. Скoрoсть ветра над акватoриями крупных рек и oзёр, а также на вершинах хoлмoв на 2-5 м/с выше, чем в oбычных услoвиях.
Атмoсфернoе давление в разных тoчках местнoсти мoжет значительнo oтличаться oт давления на метеoстанции, в зависимoсти oт услoвий рельефа (при пoдъёме на 10 м давление пoнижается примернo на 1 мм рт.ст.).